STARLINK-30824, 58176

Orbit data source: Space-Track

STARLINK-30824, 58176 is a payload satellite owned by SpaceX/Seattle (US) in LEO that was launched on Mon, 30 Oct 2023 UTC via an FALCON 9 launch vehicle from the Air Force Eastern Test Range (AFETR). Payload-class satellites include a variety of spacecraft equipped with specific instruments for various scientific and technological missions. These include communications satellites like Starlink; space stations such as the ISS; scientific satellites like the Hubble; Earth observation satellites from companies like Planet Labs, Umbra, and HawkEye 360; GPS; miniature CubeSats for education and research; and military/defense satellites.

Loading next visibility...
Identifier
58176, 2023-167B
Orbit
LEO
Country
Flag of USUS
Related business
Manufacturer
SpaceX/Seattle
Mission
Operational Commercial Communications
Bus & Motor
STARLINK V2M, Unknown motor
Mass
730 kg wet, ~700 kg dry
Launch date (UTC)
2023-10-30 (3 years ago)
Launch vehicle
FALCON 9
Launch site
Air Force Eastern Test Range (AFETR)
Object type
Payload
Rocket body
Debris
Shape & HBR
Box + 2 Pan, 17.7 m
Radar Cross Section
33.884 m², Large (>1 m²)

Expand to show TLE details & history
Last TLE update: 3 days ago

TLE from 3 days ago
0 STARLINK-30824
1 58176U 23167B   26170.75996486 -.00000201  00000-0  22310-5 0  9993
2 58176  43.0010 287.1243 0001003 261.2952  98.7786 15.27585680146592
Epoch: 2026-06-19T18:14Z
TLE epoch observation values (Epoch: 2026-06-19T18:14:20.963Z)
Latitude
-0.00004°
Longitude
105.55259°
Altitude
482.913 km
Speed
7.626 km/s
True Right ascension
19h 08m 29s
True Declination
0° 00' 00"
Sunlit
Object was in full shadow at epoch
Visualization orbit readout
Latitude
Unknown
Longitude
Unknown
Altitude
Unknown
Speed
Unknown
Apparent Right ascension
Unknown
Apparent Declination
Unknown
Sunlit
N/A
Visualization observer readout
Local Sidereal Time
21:28:32
Azimuth
Unknown
Elevation
Unknown
Doppler factor
Unknown
Orbital elements
Apogee altitude
485.665 km
Perigee altitude
484.289 km
Semi-major axis
6,863.114 km
Eccentricity
0.0001
Inclination
43.001°
RAAN
287.1243°
Arg. of periapsis
261.2952°
True anomaly
98.78996°
Mean anomaly
98.7786°
Eccentric anomaly
98.78428°
Mean motion
3.81734 °/min
Orbital period
94.31 mins
BSTAR
0.000002231
Loading maneuver chart data...
Computing Atmospheric mass density...
Loading historical data...
Loading historical data...
Loading historical data...
Loading historical data...
Loading historical data...
Loading historical data...
Loading historical data...

Documentation

Showing up to 5 results
|